EST,Max TemperatureF,Mean TemperatureF,Min TemperatureF,Max Dew PointF,MeanDew PointF,Min DewpointF,Max Humidity, Mean Humidity, Min Humidity, Max Sea Level PressureIn, Mean Sea Level PressureIn, Min Sea Level PressureIn, Max VisibilityMiles, Mean VisibilityMiles, Min VisibilityMiles, Max Wind SpeedMPH, Mean Wind SpeedMPH, Max Gust SpeedMPH,PrecipitationIn, CloudCover, Events, WindDirDegrees
2012-12-1,66,54,41,47,43,37,89,69,42,30.41,30.35,30.32,10,10,8,9,1,,0.00,0,,222
2012-12-2,68,59,50,52,48,45,86,70,50,30.39,30.33,30.27,10,10,9,15,3,,0.00,3,,229
2012-12-3,72,59,46,50,47,43,93,67,41,30.33,30.28,30.25,10,10,6,13,3,16,0.00,1,,228
2012-12-4,72,63,54,52,50,48,86,65,43,30.33,30.26,30.20,10,10,10,14,3,18,0.00,3,,226
2012-12-5,66,60,55,58,53,44,90,78,64,30.20,30.16,30.12,10,10,6,10,4,,0.05,6,Rain,51
2012-12-6,55,52,48,44,35,28,67,54,38,30.27,30.22,30.18,10,10,10,12,8,,0.00,8,Rain,52
2012-12-7,59,52,46,46,41,35,83,67,59,30.19,30.09,30.02,10,10,10,8,5,,0.00,5,,49
2012-12-8,68,57,46,56,50,42,93,84,56,30.07,30.04,30.00,10,8,4,12,3,,0.02,5,Rain,243
2012-12-9,66,60,55,57,56,54,100,88,68,30.12,30.07,30.00,10,6,0,8,2,,0.00,7,Fog,224
2012-12-10,64,60,57,59,57,55,97,89,75,29.97,29.80,29.72,10,8,1,14,8,21,0.28,8,Rain,221
2012-12-11,60,52,45,57,39,32,90,66,47,30.14,29.94,29.74,10,10,10,14,8,21,0.00,2,,351
2012-12-12,48,46,44,36,33,30,66,61,57,30.31,30.23,30.14,10,10,10,17,11,29,0.00,5,Rain,40
2012-12-13,54,46,39,30,25,19,58,45,26,30.39,30.33,30.26,10,10,10,15,12,23,0.00,4,,35
2012-12-14,59,44,30,30,26,22,79,51,28,30.41,30.32,30.25,10,10,10,6,1,,0.00,0,,300
2012-12-15,59,49,39,38,33,30,73,54,36,30.26,30.18,30.09,10,10,10,6,2,,0.00,3,,207
2012-12-16,55,53,51,52,48,37,100,83,58,30.07,30.00,29.92,10,6,2,8,4,,0.60,8,Rain,236
2012-12-17,57,55,53,54,52,51,96,92,87,29.89,29.79,29.70,10,8,2,14,7,20,0.15,8,Rain,223
2012-12-18,61,53,45,54,38,22,94,61,23,29.97,29.82,29.70,10,10,9,14,8,,0.00,3,,256
2012-12-19,66,54,42,41,34,27,71,49,33,30.10,30.04,29.96,10,10,10,16,8,,0.00,0,,252
2012-12-20,48,45,41,47,43,28,96,86,60,30.09,29.79,29.65,10,6,1,21,6,34,1.07,6,Rain,24
2012-12-21,46,41,35,26,20,14,60,46,33,29.97,29.83,29.73,10,10,10,22,16,36,0.00,2,,264
2012-12-22,57,44,30,19,13,10,54,33,17,30.15,30.09,29.98,10,10,10,9,5,,0.00,0,,209
2012-12-23,57,44,30,33,23,18,66,46,24,30.17,30.10,30.05,10,10,10,13,3,,0.00,0,,227
2012-12-24,48,45,42,45,41,32,100,86,54,30.04,29.95,29.89,10,4,1,8,5,,0.85,8,Rain,224
2012-12-25,48,46,44,45,44,42,100,93,83,30.09,30.02,29.92,10,5,0,15,6,,0.07,8,Fog-Rain,50
2012-12-26,48,42,36,46,42,27,100,87,61,29.87,29.66,29.51,10,6,2,24,14,34,1.89,7,Rain-Thunderstorm,34
2012-12-27,52,41,30,31,28,25,82,64,40,30.08,29.97,29.80,10,10,10,9,4,,0.00,0,,300
2012-12-28,44,38,32,33,28,26,79,68,53,30.18,30.09,29.99,10,10,10,8,4,,0.00,2,Rain,59
2012-12-29,55,46,36,40,34,21,100,79,41,30.09,29.85,29.77,10,7,2,18,6,25,0.19,7,Rain,300
2012-12-30,48,38,28,23,20,17,75,52,28,30.43,30.32,30.11,10,10,10,9,2,16,0.00,0,,243
2012-12-31,52,41,30,27,24,20,79,50,28,30.38,30.29,30.14,10,10,10,15,5,22,0.00,3,,235